Date String (YYYY-MM-DD hh:mm:ss) UTC,Instrument flags,absolute air pressure of the measurement (hPa),sample flow rate (lpm),inlet stack bypass flow (lpm),air temperature of the measurement (°C),ambient temperature measured by the external sensor (°C),aerosol sample conditioner tube jacket temperature (°C),OPC LED temperature (°C),internal box temperature (°C),relative humidity of the measurement (%),span deviation,mass concentration of particles derived from Lorenz-Mie calculation of OPC scattering (μg/m³),mass concentration of particles derived from Lorenz-Mie calculation of OPC scattering (μg/m³),mass concentration of particles derived from Lorenz-Mie calculation of OPC scattering (μg/m³)
DateTimeUTC,F1_M11,P_M11,Q1_M11,Q2_M11,T1_M11,T2_M11,T3_M11,T4_M11,T5_M11,U1_M11,ZSPAN_M11,X0_M11,X2_M11,X1_M11
2023-12-30 14:00:00,SystemResetWarning,0830.7,5.00,000.00,020.3,019.2,000.0,028.7,021.7,9.3,0000.0,0005.03,0003.37,0003.15
2023-12-30 14:01:00,SystemResetWarning,0830.7,5.01,000.00,020.3,019.2,000.0,028.7,021.7,9.3,0000.0,0005.09,0003.37,0003.14
2023-12-30 14:02:00,SystemResetWarning,0830.7,5.01,000.00,020.3,019.2,000.0,028.7,021.6,9.3,0000.0,0005.83,0003.36,0003.12
2023-12-30 14:03:00,SystemResetWarning,0830.7,5.01,000.00,020.3,019.2,000.0,028.7,021.6,9.3,0000.0,0005.60,0003.34,0003.09
2023-12-30 14:04:00,SystemResetWarning,0830.7,5.00,000.00,020.3,019.2,000.0,028.7,021.6,9.3,0000.0,0005.66,0003.34,0003.07
2023-12-30 14:05:00,SystemResetWarning,0830.7,5.00,000.00,020.3,019.2,000.0,028.7,021.6,9.3,0000.0,0005.71,0003.33,0003.01
2023-12-30 14:06:00,SystemResetWarning,0830.7,4.99,000.00,020.3,019.2,000.0,028.7,021.6,9.3,0000.0,0005.69,0003.30,0002.96
2023-12-30 14:07:00,SystemResetWarning,0830.7,4.99,000.00,020.3,019.2,000.0,028.7,021.6,9.3,0000.0,0006.34,0003.29,0002.92
2023-12-30 14:08:00,SystemResetWarning,0830.7,4.99,000.00,020.3,019.2,000.0,028.7,021.6,9.4,0000.0,0006.31,0003.28,0002.89
2023-12-30 14:09:00,SystemResetWarning,0830.7,5.00,000.00,020.3,019.2,000.0,028.7,021.6,9.4,0000.0,0006.20,0003.24,0002.86
2023-12-30 14:10:00,SystemResetWarning,0830.7,5.00,000.00,020.3,019.2,000.0,028.7,021.6,9.3,0000.0,0006.27,0003.23,0002.83
2023-12-30 14:11:00,SystemResetWarning,0830.6,5.01,000.00,020.3,019.2,000.0,028.6,021.6,9.4,0000.0,0006.14,0003.21,0002.79
2023-12-30 14:12:00,SystemResetWarning,0830.7,5.00,000.00,020.3,019.2,000.0,028.6,021.6,9.4,0000.0,0006.05,0003.19,0002.74
2023-12-30 14:13:00,SystemResetWarning,0830.6,5.01,000.00,020.3,019.2,000.0,028.6,021.6,9.3,0000.0,0005.98,0003.17,0002.69
2023-12-30 14:14:00,SystemResetWarning,0830.5,5.00,000.00,020.2,019.2,000.0,028.6,021.6,9.3,0000.0,0005.84,0003.16,0002.67
2023-12-30 14:15:00,SystemResetWarning,0830.6,5.00,000.00,020.2,019.2,000.0,028.6,021.6,9.3,0000.0,0006.03,0003.14,0002.64
2023-12-30 14:16:00,SystemResetWarning,0830.6,5.00,000.00,020.2,019.1,000.0,028.6,021.6,9.3,0000.0,0006.14,0003.11,0002.62
2023-12-30 14:17:00,SystemResetWarning,0830.6,4.99,000.00,020.2,019.1,000.0,028.6,021.5,9.3,0000.0,0005.98,0003.03,0002.55
2023-12-30 14:18:00,SystemResetWarning,0830.5,5.00,000.00,020.2,019.1,000.0,028.6,021.5,9.3,0000.0,0005.25,0002.95,0002.49
2023-12-30 14:19:00,SystemResetWarning,0830.7,4.99,000.00,020.2,019.1,000.0,028.6,021.5,9.3,0000.0,0005.24,0002.89,0002.42
2023-12-30 14:20:00,SystemResetWarning,0830.6,5.00,000.00,020.2,019.1,000.0,028.6,021.5,9.3,0000.0,0005.26,0002.87,0002.37
2023-12-30 14:21:00,SystemResetWarning,0830.6,5.00,000.00,020.2,019.1,000.0,028.6,021.5,9.4,0000.0,0005.07,0002.80,0002.32
2023-12-30 14:22:00,SystemResetWarning,0830.6,5.00,000.00,020.2,019.1,000.0,028.6,021.5,9.4,0000.0,0005.04,0002.73,0002.26
2023-12-30 14:23:00,SystemResetWarning,0830.5,5.01,000.00,020.2,019.1,000.0,028.6,021.5,9.4,0000.0,0005.20,0002.69,0002.21
2023-12-30 14:24:00,SystemResetWarning,0830.4,5.00,000.00,020.2,019.1,000.0,028.6,021.5,9.4,0000.0,0004.24,0002.63,0002.18
2023-12-30 14:25:00,SystemResetWarning,0830.5,5.01,000.00,020.2,019.1,000.0,028.6,021.5,9.4,0000.0,0004.31,0002.58,0002.14
2023-12-30 14:26:00,SystemResetWarning,0830.8,5.00,000.00,020.2,019.1,000.0,028.5,021.5,9.4,0000.0,0004.03,0002.52,0002.08
2023-12-30 14:27:00,SystemResetWarning,0830.8,5.00,000.00,020.2,019.0,000.0,028.5,021.5,9.4,0000.0,0003.81,0002.46,0002.05
2023-12-30 14:28:00,SystemResetWarning,0830.5,5.00,000.00,020.1,019.0,000.0,028.5,021.5,9.4,0000.0,0003.80,0002.46,0002.06
2023-12-30 14:29:00,SystemResetWarning,0830.5,5.00,000.00,020.1,019.0,000.0,028.5,021.5,9.4,0000.0,0003.90,0002.51,0002.09
2023-12-30 14:30:00,SystemResetWarning,0830.5,5.00,000.00,020.1,019.0,000.0,028.5,021.4,9.4,0000.0,0003.89,0002.52,0002.11
2023-12-30 14:31:00,SystemResetWarning,0830.4,5.00,000.00,020.1,019.0,000.0,028.5,021.4,9.4,0000.0,0003.93,0002.56,0002.16
2023-12-30 14:32:00,SystemResetWarning,0830.6,5.00,000.00,020.1,019.0,000.0,028.5,021.4,9.4,0000.0,0004.11,0002.65,0002.24
2023-12-30 14:33:00,SystemResetWarning,0830.6,5.00,000.00,020.1,019.0,000.0,028.5,021.4,9.4,0000.0,0004.52,0002.75,0002.36
2023-12-30 14:34:00,SystemResetWarning,0830.6,5.00,000.00,020.1,019.0,000.0,028.5,021.4,9.4,0000.0,0004.78,0002.85,0002.48
2023-12-30 14:35:00,SystemResetWarning,0830.6,5.00,000.00,020.1,019.0,000.0,028.5,021.4,9.4,0000.0,0004.89,0002.97,0002.60
2023-12-30 14:36:00,SystemResetWarning,0830.5,5.00,000.00,020.1,019.0,000.0,028.5,021.4,9.4,0000.0,0004.98,0003.09,0002.73
2023-12-30 14:37:00,SystemResetWarning,0830.4,5.00,000.00,020.1,019.0,000.0,028.5,021.4,9.4,0000.0,0005.10,0003.17,0002.86
2023-12-30 14:38:00,SystemResetWarning,0830.4,5.00,000.00,020.1,019.0,000.0,028.5,021.4,9.4,0000.0,0005.20,0003.26,0003.00
2023-12-30 14:39:00,SystemResetWarning,0830.4,5.00,000.00,020.1,019.0,000.0,028.5,021.4,9.4,0000.0,0005.47,0003.36,0003.12
2023-12-30 14:40:00,SystemResetWarning,0830.4,5.00,000.00,020.1,019.0,000.0,028.4,021.4,9.4,0000.0,0005.68,0003.45,0003.19
2023-12-30 14:41:00,SystemResetWarning,0830.4,5.00,000.00,020.1,019.0,000.0,028.4,021.4,9.4,0000.0,0005.92,0003.53,0003.25
2023-12-30 14:42:00,SystemResetWarning,0830.4,4.99,000.00,020.0,019.0,000.0,028.4,021.4,9.4,0000.0,0006.11,0003.57,0003.29
2023-12-30 14:43:00,SystemResetWarning,0830.5,5.00,000.00,020.0,019.0,000.0,028.4,021.3,9.4,0000.0,0005.99,0003.58,0003.31
2023-12-30 14:44:00,SystemResetWarning,0830.4,5.00,000.00,020.0,019.0,000.0,028.4,021.4,9.4,0000.0,0005.95,0003.61,0003.34
2023-12-30 14:45:00,SystemResetWarning,0830.5,5.00,000.00,020.0,019.0,000.0,028.4,021.4,9.4,0000.0,0005.47,0003.63,0003.35
2023-12-30 14:46:00,SystemResetWarning,0830.4,5.00,000.00,020.0,019.0,000.0,028.4,021.4,9.4,0000.0,0005.62,0003.68,0003.37
2023-12-30 14:47:00,SystemResetWarning,0830.3,5.00,000.00,020.0,019.0,000.0,028.4,021.4,9.4,0000.0,0005.57,0003.69,0003.39
2023-12-30 14:48:00,SystemResetWarning,0830.3,5.00,000.00,020.0,019.0,000.0,028.4,021.3,9.4,0000.0,0005.60,0003.71,0003.41
2023-12-30 14:49:00,SystemResetWarning,0830.4,5.00,000.00,020.0,019.0,000.0,028.4,021.3,9.4,0000.0,0006.32,0003.72,0003.42
2023-12-30 14:50:00,SystemResetWarning,0830.4,5.00,000.00,020.0,019.0,000.0,028.4,021.3,9.5,0000.0,0006.79,0003.75,0003.44
2023-12-30 14:51:00,SystemResetWarning,0830.4,5.00,000.00,020.0,019.0,000.0,028.4,021.3,9.5,0000.0,0007.09,0003.75,0003.44
2023-12-30 14:52:00,SystemResetWarning,0830.4,5.00,000.00,020.0,019.0,000.0,028.4,021.3,9.5,0000.0,0007.23,0003.74,0003.44
2023-12-30 14:53:00,SystemResetWarning,0830.3,5.00,000.00,020.0,019.0,000.0,028.4,021.3,9.5,0000.0,0007.14,0003.75,0003.43
2023-12-30 14:54:00,SystemResetWarning,0830.3,5.00,000.00,020.0,019.0,000.0,028.4,021.3,9.5,0000.0,0007.12,0003.74,0003.43
2023-12-30 14:55:00,SystemResetWarning,0830.3,5.00,000.00,020.0,019.0,000.0,028.4,021.4,9.5,0000.0,0007.00,0003.73,0003.42
2023-12-30 14:56:00,SystemResetWarning,0830.3,5.00,000.00,020.0,019.0,000.0,028.4,021.4,9.5,0000.0,0007.05,0003.74,0003.43
2023-12-30 14:57:00,SystemResetWarning,0830.3,5.00,000.00,020.0,019.0,000.0,028.4,021.4,9.5,0000.0,0007.08,0003.74,0003.43
2023-12-30 14:58:00,SystemResetWarning,0830.3,5.01,000.00,020.0,019.0,000.0,028.4,021.4,9.5,0000.0,0007.03,0003.73,0003.42
2023-12-30 14:59:00,SystemResetWarning,0830.4,5.01,000.00,020.0,019.0,000.0,028.4,021.4,9.5,0000.0,0006.97,0003.71,0003.40
